Location: Unspecified
(0.0000°N, 0.0000°E)
Time: 23:53:46
(UTC+00:00)

SR - Pass Details

Date: 21 December 2018
Orbit: 581 x 876 km, 66.7° (Epoch: 18 January)

Event Time Altitude Azimuth Distance (km) Brightness Sun altitude
Rises 22:12:35 0° 184° (S) 3,425 - -55.2°
Reaches altitude 10° 22:15:14 10° 175° (S) 2,507 - -55.7°
Maximum altitude 22:20:34 36° 110° (ESE) 1,349 - -56.6°
Drops below altitude 10° 22:25:52 10° 45° (NE) 2,503 - -57.6°
Sets 22:28:30 0° 36° (NE) 3,419 - -58.0°
